CYZG

Salluit Airport

Code ICAO CYZG
Code IATA YZG
Nom Salluit Airport
Emplacement Salluit, Quebec, CA
Élévation 745 pieds / 227.1 mètres
Latitude 62.17944444
Longitude -75.66722222
METAR CYZG 122000Z 04017KT 6SM -SN OVC010 M11/M12 A3008 RMK ST8 SLP212
Informations extras Afficher cartes
Piste Longueur Largeur Surface Élévation
03 3523 ft 100 ft GRAVEL 723 ft
21 3523 ft 100 ft GRAVEL 745 ft